Location: Home
(42.5358°N, 72.7383°W)
Time: 06:20:53
(UTC-05:00)

Explorer 11/Cluster Stage 4 - Pass Details

Date: 08 December 2021
Orbit: 467 x 1255 km, 28.8° (Epoch: 25 January)

Event Time Altitude Azimuth Distance (km) Brightness Sun altitude
Rises 02:40:51 0° 247° (WSW) 3,321 - -48.3°
Reaches altitude 10° 02:43:42 10° 233° (SW) 2,529 - -47.7°
Maximum altitude 02:48:23 23° 183° (S) 1,973 - -46.9°
Exits shadow 02:53:36 11° 136° (SE) 2,903 9.7 -46.0°
Drops below altitude 10° 02:53:47 10° 135° (SE) 2,950 9.7 -45.9°
Sets 02:57:25 0° 122° (ESE) 4,022 10.7 -45.3°
